AG4OX Weather Reports


Display with metric or nautical units.
time (UTC)temp
F
wind
direction
speed
MPH
gust
MPH
rain 1hr
in
rain 24hr
in
rain mn
in
humidity
%
barometer
mb
20260505000007 73 76 3.0 12.0 0.00 0.10 0.10 73 1013.2
20260504235007 73 78 5.0 9.0 0.00 0.10 0.10 71 1013.2
20260504234005 74 72 5.0 9.0 0.00 0.10 0.10 70 1013.1
20260504233006 74 73 3.0 10.0 0.00 0.10 0.10 68 1013.1
20260504231006 74 86 5.0 10.0 0.00 0.10 0.10 68 1013.0
20260504230006 75 73 5.0 12.0 0.00 0.10 0.10 67 1013.2
20260504225006 75 70 4.0 12.0 0.00 0.10 0.10 66 1013.2
20260504224006 75 88 7.0 13.0 0.00 0.10 0.10 66 1013.1
20260504223006 75 87 6.0 13.0 0.00 0.10 0.10 65 1013.2
20260504221005 75 69 8.0 14.0 0.00 0.10 0.10 66 1013.1
20260504215006 75 79 7.0 15.0 0.00 0.10 0.10 66 1013.1
20260504213006 76 65 7.0 14.0 0.00 0.10 0.10 66 1013.3
20260504210006 76 61 11.0 20.0 0.00 0.10 0.10 66 1013.3
20260504205008 75 77 9.0 17.0 0.00 0.10 0.10 68 1013.5
20260504204006 75 78 10.0 16.0 0.00 0.10 0.10 69 1013.8
20260504203005 75 88 8.0 18.0 0.00 0.10 0.10 68 1013.7
20260504202006 75 73 11.0 18.0 0.00 0.10 0.10 67 1013.9
20260504201006 75 70 12.0 20.0 0.00 0.10 0.10 68 1013.7
20260504200006 76 76 7.0 20.0 0.00 0.10 0.10 66 1013.5
20260504195005 76 84 10.0 18.0 0.00 0.10 0.10 65 1013.8
20260504194006 76 67 7.0 18.0 0.00 0.10 0.10 66 1014.0
20260504193006 76 45 6.0 17.0 0.00 0.10 0.10 67 1014.1
20260504192005 76 96 9.0 18.0 0.00 0.10 0.10 67 1014.1
20260504190006 76 62 8.0 17.0 0.00 0.10 0.10 67 1014.5
20260504185006 75 58 7.0 15.0 0.00 0.10 0.10 66 1014.6
20260504184006 75 89 10.0 17.0 0.00 0.10 0.10 67 1014.7
20260504182006 76 73 11.0 20.0 0.00 0.10 0.10 65 1014.8
20260504181006 77 72 10.0 20.0 0.00 0.10 0.10 65 1014.7
20260504180006 77 81 9.0 17.0 0.00 0.10 0.10 64 1014.9
20260504175006 77 73 10.0 18.0 0.00 0.10 0.10 66 1014.9
20260504174006 78 58 10.0 16.0 0.00 0.10 0.10 63 1015.1
20260504173006 78 46 7.0 17.0 0.00 0.10 0.10 65 1015.1
20260504172006 76 76 11.0 17.0 0.00 0.10 0.10 66 1015.0
20260504171006 76 65 7.0 16.0 0.00 0.10 0.10 66 1015.2
20260504151006 76 57 7.0 14.0 0.00 0.10 0.10 66 1015.5
20260504141006 75 57 6.0 16.0 0.10 0.10 0.10 68 1014.9
20260504082006 72 9 1.0 3.0 0.00 0.04 0.00 78 1012.8
20260504050006 73 49 2.0 5.0 0.00 0.04 0.00 76 1014.4
20260504045007 73 34 2.0 3.0 0.00 0.04 0.00 76 1014.5
20260504044005 73 48 2.0 3.0 0.00 0.04 0.00 76 1014.3
20260504043007 73 76 2.0 3.0 0.00 0.04 0.00 76 1014.6
20260504042007 73 64 2.0 5.0 0.00 0.04 0.00 76 1014.5
20260504041005 73 66 3.0 6.0 0.00 0.04 0.00 76 1014.6
20260504040006 73 71 2.0 10.0 0.00 0.04 0.00 76 1014.6
20260504035005 73 66 2.0 6.0 0.00 0.04 0.04 76 1014.7
20260504034006 73 64 3.0 6.0 0.00 0.04 0.04 75 1014.7
20260504033005 72 59 1.0 3.0 0.00 0.04 0.04 75 1015.0
20260504032005 73 47 3.0 7.0 0.00 0.04 0.04 75 1014.9
20260504031005 72 60 2.0 3.0 0.00 0.04 0.04 75 1014.9
20260504030005 72 74 2.0 6.0 0.00 0.04 0.04 75 1015.0
20260504025005 72 59 3.0 10.0 0.00 0.04 0.04 76 1014.9
20260504024007 72 59 2.0 7.0 0.00 0.04 0.04 76 1014.9
20260504023006 72 79 1.0 6.0 0.00 0.04 0.04 76 1014.8
20260504022007 72 44 2.0 7.0 0.00 0.04 0.04 76 1014.8
20260504021006 72 65 3.0 7.0 0.00 0.04 0.04 76 1014.7
20260504020006 72 58 2.0 6.0 0.00 0.04 0.04 76 1014.6
20260504015007 72 64 4.0 6.0 0.00 0.04 0.04 77 1014.6
20260504013006 71 63 2.0 6.0 0.00 0.04 0.04 78 1014.6
20260504012006 71 88 2.0 6.0 0.00 0.04 0.04 79 1014.4
20260504011005 71 50 3.0 6.0 0.00 0.04 0.04 79 1014.3
20260504010005 71 72 3.0 6.0 0.00 0.04 0.04 81 1014.3
20260504005006 71 79 2.0 7.0 0.00 0.04 0.04 81 1014.2
20260504002006 71 66 3.0 9.0 0.00 0.04 0.04 79 1014.3